EW4036 Weather Reports


time (UTC)temp
C
wind
direction
speed
KPH
gust
KPH
rain 1hr
cm
rain 24hr
cm
rain mn
cm
humidity
%
barometer
mb
20260505204539 3 74 0.0 0.0 0.00 0.00 0.00 62 1010.8
20260505203136 3 74 0.0 0.0 0.00 0.00 0.00 61 1010.7
20260505201542 3 74 0.0 1.6 0.00 0.00 0.00 57 1010.6
20260505200136 4 74 1.6 4.8 0.00 0.00 0.00 54 1010.5
20260505194540 5 82 1.6 3.2 0.00 0.00 0.00 51 1010.4
20260505193041 6 82 1.6 3.2 0.00 0.00 0.00 49 1010.2
20260505191537 6 238 0.0 3.2 0.00 0.00 0.00 44 1010.0
20260505190038 6 238 3.2 4.8 0.00 0.00 0.00 42 1009.9
20260505184540 7 247 3.2 4.8 0.00 0.00 0.00 40 1009.8
20260505183039 7 248 4.8 9.7 0.00 0.00 0.00 39 1009.7
20260505181546 8 272 6.4 12.9 0.00 0.00 0.00 38 1009.6
20260505180138 8 242 6.4 16.1 0.00 0.00 0.00 37 1009.4
20260505174543 8 262 14.5 17.7 0.00 0.00 0.00 35 1009.2
20260505173137 8 265 14.5 19.3 0.00 0.00 0.00 34 1009.2
20260505171540 9 269 12.9 17.7 0.00 0.00 0.00 33 1009.2
20260505170100 9 269 12.9 22.5 0.00 0.00 0.00 33 1009.1
20260505164543 9 271 16.1 24.1 0.00 0.00 0.00 33 1009.2
20260505163041 9 271 17.7 25.7 0.00 0.00 0.00 32 1009.2
20260505161538 9 249 14.5 29.0 0.00 0.00 0.00 35 1009.2
20260505160136 9 274 14.5 29.0 0.00 0.00 0.00 35 1009.1
20260505153041 10 284 17.7 25.7 0.00 0.00 0.00 36 1009.0
20260505151554 10 272 17.7 29.0 0.00 0.00 0.00 37 1009.1
20260505150138 10 292 16.1 29.0 0.00 0.00 0.00 36 1009.0
20260505140136 10 314 12.9 30.6 0.00 0.00 0.00 38 1008.9
20260505124542 9 313 14.5 30.6 0.00 0.00 0.00 39 1009.3
20260505123039 8 277 14.5 33.8 0.00 0.00 0.00 40 1009.3
20260505121551 8 294 20.9 29.0 0.00 0.00 0.00 36 1009.3
20260505120136 8 308 20.9 30.6 0.00 0.00 0.00 39 1009.4
20260505114540 8 267 20.9 35.4 0.00 0.00 0.00 40 1009.5
20260505113041 8 303 22.5 33.8 0.00 0.00 0.00 39 1009.4
20260505111544 7 300 19.3 30.6 0.00 0.00 0.00 41 1009.3
20260505101551 7 251 22.5 29.0 0.00 0.00 0.00 45 1009.1
20260505100136 7 261 19.3 27.4 0.00 0.00 0.00 46 1009.0
20260505094542 7 321 16.1 27.4 0.00 0.00 0.00 45 1008.9
20260505093041 7 278 17.7 32.2 0.00 0.00 0.00 49 1008.8
20260505091541 7 279 14.5 24.1 0.00 0.00 0.00 52 1008.7
20260505090137 7 288 12.9 24.1 0.00 0.00 0.00 50 1008.7
20260505084636 6 277 19.3 27.4 0.00 0.00 0.00 52 1008.6
20260505083136 6 266 19.3 27.4 0.00 0.00 0.00 50 1008.6
20260505081542 6 265 16.1 24.1 0.00 0.00 0.00 52 1008.5
20260505080135 6 281 11.3 20.9 0.00 0.00 0.00 56 1008.3
20260505074543 6 333 11.3 20.9 0.00 0.00 0.00 57 1008.3
20260505073039 6 290 14.5 22.5 0.00 0.00 0.00 59 1008.2
20260505071537 6 321 12.9 20.9 0.00 0.00 0.00 59 1008.1
20260505070042 6 327 11.3 22.5 0.00 0.00 0.00 60 1008.0
20260505064537 5 290 16.1 24.1 0.00 0.00 0.00 60 1007.9
20260505063039 5 294 16.1 24.1 0.00 0.00 0.00 62 1007.7
20260505061545 5 297 16.1 22.5 0.00 0.00 0.00 64 1007.8
20260505060039 5 301 17.7 24.1 0.00 0.00 0.00 66 1007.6
20260505054540 5 282 14.5 22.5 0.00 0.00 0.00 66 1007.5
20260505053043 5 276 14.5 22.5 0.00 0.00 0.00 67 1007.4
20260505051536 5 294 9.7 17.7 0.00 0.00 0.00 69 1007.1
20260505041538 3 271 6.4 16.1 0.00 0.03 0.00 76 1006.7
20260505040136 3 272 4.8 8.0 0.00 0.03 0.00 77 1006.5
20260505034539 3 281 6.4 11.3 0.00 0.10 0.00 77 1006.3
20260505033136 3 301 3.2 6.4 0.00 0.10 0.00 76 1006.2
20260505031541 3 308 4.8 8.0 0.00 0.10 0.00 75 1006.1
20260505030138 3 302 4.8 8.0 0.00 0.10 0.00 74 1006.0
20260505024541 4 309 6.4 0.0 0.00 0.00 0.00 74 1005.9
20260505023044 5 305 6.4 14.5 0.00 0.20 0.00 73 1005.8
20260505021536 5 299 9.7 17.7 0.00 0.20 0.00 76 1005.8
20260505020046 5 290 11.3 16.1 0.00 0.20 0.00 90 1005.8
20260505014536 6 263 12.9 19.3 0.00 0.23 0.00 91 1005.5
20260505013039 6 257 16.1 22.5 0.00 0.23 0.00 90 1005.3
20260505011540 6 262 16.1 24.1 0.00 0.23 0.00 90 1005.2
20260505010137 6 242 16.1 24.1 0.00 0.23 0.00 90 1005.2
20260505004545 6 216 12.9 24.1 0.00 0.23 0.00 90 1005.1
20260505003038 6 244 12.9 19.3 0.00 0.23 0.00 89 1005.1
20260505001540 6 229 16.1 25.7 0.00 0.23 0.00 89 1004.9
20260505000135 6 225 14.5 27.4 0.00 0.23 0.00 89 1004.8
20260504234603 6 213 16.1 27.4 0.00 0.23 0.00 89 1004.9
20260504233038 6 243 19.3 25.7 0.00 0.23 0.00 88 1004.8
20260504231548 6 235 17.7 32.2 0.00 0.23 0.00 88 1004.8
20260504230037 6 229 16.1 25.7 0.00 0.23 0.00 87 1004.8
20260504224540 6 226 14.5 27.4 0.00 0.23 0.00 87 1004.9
20260504223036 7 229 17.7 30.6 0.00 0.23 0.00 86 1004.9
20260504221542 7 213 17.7 29.0 0.00 0.23 0.00 85 1004.9
20260504220135 7 202 16.1 30.6 0.00 0.23 0.00 83 1004.8
20260504214539 7 221 20.9 33.8 0.00 0.23 0.23 82 1004.8
20260504213037 7 234 12.9 29.0 0.00 0.23 0.23 80 1004.8
20260504211541 7 204 19.3 33.8 0.00 0.23 0.23 78 1004.9
20260504210036 8 220 19.3 25.7 0.00 0.23 0.23 75 1004.9